When you browse on this site, cookies collect data to enhance your experience and personalize the content and advertising you see.
Visit our Privacy Policy to learn more. By continuing to use the site, you agree to this use of cookies and data.
  • en France
  • Liste des pays
  • À 7 jours
  • Température de l'eau
  • Carte satellitaire
  • Carte météo
  • Widgets météo
  • user-avatar
    Se connecter

    Météo par heure à Sables d'Or

    Ce jour, 27 Mai, Lundi

    Heure Température Précipitation Vent Pression Humidité
    00:00 +18°C° 0 mm 2 m/s 762 mmHg 81%
    01:00 +17°C° 0 mm 2 m/s 762 mmHg 81%
    02:00 +17°C° 0 mm 2 m/s 762 mmHg 80%
    03:00 +17°C° 0 mm 2 m/s 762 mmHg 81%
    04:00 +17°C° 0 mm 2 m/s 762 mmHg 81%
    05:00 +17°C° 0 mm 2 m/s 762 mmHg 81%
    06:00 +19°C° 0 mm 2 m/s 762 mmHg 78%
    07:00 +20°C° 0 mm 2 m/s 762 mmHg 75%
    08:00 +21°C° 0 mm 2 m/s 762 mmHg 72%
    09:00 +21°C° 0 mm 2 m/s 762 mmHg 70%
    10:00 +22°C° 0 mm 3 m/s 762 mmHg 68%
    11:00 +24°C° 0 mm 3 m/s 762 mmHg 66%
    12:00 +24°C° 0 mm 3 m/s 762 mmHg 66%
    13:00 +23°C° 0 mm 4 m/s 762 mmHg 66%
    14:00 +23°C° 0 mm 4 m/s 762 mmHg 66%
    15:00 +22°C° 0 mm 4 m/s 761 mmHg 68%
    16:00 +22°C° 0 mm 4 m/s 761 mmHg 70%
    17:00 +21°C° 0 mm 4 m/s 761 mmHg 72%
    18:00 +20°C° 0 mm 4 m/s 761 mmHg 77%
    19:00 +19°C° 0 mm 4 m/s 761 mmHg 82%
    20:00 +18°C° 0 mm 3 m/s 761 mmHg 87%
    21:00 +18°C° 0 mm 3 m/s 761 mmHg 88%
    22:00 +17°C° 0 mm 3 m/s 761 mmHg 89%
    23:00 +17°C° 0 mm 3 m/s 761 mmHg 90%

    Demain, 28 Mai, Mardi

    Heure Température Précipitation Vent Pression Humidité
    00:00 +17°C° 0 mm 3 m/s 760 mmHg 90%
    01:00 +17°C° 0 mm 3 m/s 760 mmHg 91%
    02:00 +17°C° 0 mm 3 m/s 760 mmHg 91%
    03:00 +17°C° 0 mm 3 m/s 759 mmHg 91%
    04:00 +17°C° 0 mm 3 m/s 759 mmHg 90%
    05:00 +17°C° 0 mm 3 m/s 759 mmHg 90%
    06:00 +18°C° 0 mm 3 m/s 759 mmHg 86%
    07:00 +19°C° 0 mm 3 m/s 759 mmHg 83%
    08:00 +20°C° 0 mm 3 m/s 759 mmHg 79%
    09:00 +21°C° 0 mm 3 m/s 758 mmHg 76%
    10:00 +22°C° 0 mm 3 m/s 758 mmHg 73%
    11:00 +22°C° 0 mm 3 m/s 758 mmHg 70%
    12:00 +24°C° 0 mm 3 m/s 758 mmHg 70%
    13:00 +24°C° 0 mm 3 m/s 758 mmHg 69%
    14:00 +24°C° 0 mm 3 m/s 757 mmHg 68%
    15:00 +23°C° 0 mm 4 m/s 757 mmHg 70%
    16:00 +22°C° 0 mm 4 m/s 756 mmHg 72%
    17:00 +22°C° 0 mm 4 m/s 756 mmHg 74%
    18:00 +21°C° 0 mm 4 m/s 756 mmHg 77%
    19:00 +20°C° 0 mm 4 m/s 756 mmHg 81%
    20:00 +19°C° 0 mm 4 m/s 756 mmHg 84%
    21:00 +19°C° 0 mm 5 m/s 756 mmHg 84%
    22:00 +19°C° 0 mm 5 m/s 756 mmHg 85%
    23:00 +19°C° 0 mm 5 m/s 756 mmHg 85%

    Après-demain, 29 Mai, Mercredi

    Heure Température Précipitation Vent Pression Humidité
    00:00 +19°C° 0 mm 5 m/s 756 mmHg 84%
    01:00 +19°C° 0 mm 5 m/s 756 mmHg 82%
    02:00 +19°C° 0 mm 5 m/s 756 mmHg 81%
    03:00 +17°C° 0 mm 5 m/s 756 mmHg 80%
    04:00 +17°C° 0 mm 5 m/s 756 mmHg 79%
    05:00 +16°C° 0 mm 5 m/s 756 mmHg 79%
    06:00 +19°C° 0 mm 5 m/s 756 mmHg 76%
    07:00 +20°C° 0 mm 4 m/s 756 mmHg 73%
    08:00 +21°C° 0 mm 4 m/s 757 mmHg 71%
    09:00 +23°C° 0 mm 4 m/s 757 mmHg 67%
    10:00 +25°C° 0 mm 4 m/s 757 mmHg 64%
    11:00 +27°C° 0 mm 4 m/s 757 mmHg 61%
    12:00 +27°C° 0 mm 4 m/s 757 mmHg 60%
    13:00 +27°C° 0 mm 5 m/s 757 mmHg 59%
    14:00 +27°C° 0 mm 5 m/s 757 mmHg 58%
    15:00 +27°C° 0 mm 5 m/s 757 mmHg 61%
    16:00 +26°C° 0 mm 5 m/s 756 mmHg 64%
    17:00 +25°C° 0 mm 5 m/s 756 mmHg 67%
    18:00 +23°C° 0 mm 5 m/s 756 mmHg 70%
    19:00 +22°C° 0 mm 4 m/s 757 mmHg 72%
    20:00 +21°C° 0 mm 4 m/s 757 mmHg 74%
    21:00 +21°C° 0 mm 4 m/s 757 mmHg 75%
    22:00 +21°C° 0 mm 3 m/s 757 mmHg 75%
    23:00 +21°C° 0 mm 3 m/s 758 mmHg 76%

    30 Mai, Jeudi

    Heure Température Précipitation Vent Pression Humidité
    00:00 +20°C° 0 mm 3 m/s 758 mmHg 77%
    01:00 +20°C° 0 mm 3 m/s 758 mmHg 77%
    02:00 +19°C° 0 mm 3 m/s 758 mmHg 78%
    03:00 +19°C° 0 mm 3 m/s 758 mmHg 78%
    04:00 +19°C° 0 mm 2 m/s 758 mmHg 79%
    05:00 +19°C° 0 mm 2 m/s 758 mmHg 79%
    06:00 +21°C° 0 mm 1 m/s 758 mmHg 75%
    07:00 +22°C° 0 mm 1 m/s 758 mmHg 71%
    08:00 +22°C° 0 mm 0 m/s 758 mmHg 67%
    09:00 +25°C° 0 mm 1 m/s 758 mmHg 64%
    10:00 +25°C° 0 mm 1 m/s 758 mmHg 60%
    11:00 +26°C° 0 mm 2 m/s 758 mmHg 57%
    12:00 +26°C° 0 mm 2 m/s 758 mmHg 58%
    13:00 +26°C° 0 mm 3 m/s 758 mmHg 60%
    14:00 +25°C° 0 mm 4 m/s 758 mmHg 62%
    15:00 +25°C° 0 mm 3 m/s 758 mmHg 63%
    16:00 +24°C° 0 mm 3 m/s 757 mmHg 64%
    17:00 +24°C° 0 mm 3 m/s 757 mmHg 66%
    18:00 +21°C° 0 mm 2 m/s 757 mmHg 69%
    19:00 +20°C° 0 mm 2 m/s 757 mmHg 73%
    20:00 +20°C° 0 mm 1 m/s 757 mmHg 76%
    21:00 +20°C° 0 mm 1 m/s 757 mmHg 75%
    22:00 +20°C° 0 mm 1 m/s 757 mmHg 73%
    23:00 +18°C° 0 mm 0 m/s 757 mmHg 72%

    31 Mai, Vendredi

    Heure Température Précipitation Vent Pression Humidité
    00:00 +19°C° 0 mm 1 m/s 757 mmHg 74%
    01:00 +18°C° 0 mm 2 m/s 757 mmHg 77%
    02:00 +18°C° 0 mm 3 m/s 757 mmHg 79%
    03:00 +18°C° 0 mm 3 m/s 757 mmHg 84%
    04:00 +18°C° 0 mm 4 m/s 757 mmHg 89%
    05:00 +16°C° 0 mm 5 m/s 757 mmHg 94%
    06:00 +18°C° 0 mm 4 m/s 757 mmHg 90%
    07:00 +19°C° 0 mm 4 m/s 757 mmHg 85%
    08:00 +21°C° 0 mm 4 m/s 757 mmHg 81%
    09:00 +22°C° 0 mm 3 m/s 757 mmHg 78%
    10:00 +24°C° 0 mm 2 m/s 757 mmHg 75%
    11:00 +25°C° 0 mm 2 m/s 757 mmHg 71%
    12:00 +25°C° 0 mm 1 m/s 756 mmHg 71%
    13:00 +25°C° 0 mm 1 m/s 756 mmHg 70%
    14:00 +24°C° 0 mm 0 m/s 756 mmHg 69%
    15:00 +26°C° 0.4 mm 1 m/s 756 mmHg 70%
    16:00 +25°C° 0.4 mm 1 m/s 756 mmHg 71%
    17:00 +25°C° 0.4 mm 1 m/s 756 mmHg 72%
    18:00 +24°C° 0.6 mm 2 m/s 756 mmHg 76%
    19:00 +22°C° 0.6 mm 3 m/s 756 mmHg 81%
    20:00 +21°C° 0.6 mm 3 m/s 755 mmHg 85%
    21:00 +20°C° 0 mm 4 m/s 755 mmHg 86%
    22:00 +20°C° 0 mm 4 m/s 755 mmHg 87%
    23:00 +19°C° 0 mm 4 m/s 755 mmHg 87%

    1 Juin, Samedi

    Heure Température Précipitation Vent Pression Humidité
    00:00 +19°C° 0.2 mm 5 m/s 755 mmHg 87%
    01:00 +17°C° 0.2 mm 6 m/s 755 mmHg 87%
    02:00 +17°C° 0.2 mm 7 m/s 755 mmHg 87%
    03:00 +16°C° 0.1 mm 7 m/s 755 mmHg 87%
    04:00 +16°C° 0.1 mm 7 m/s 755 mmHg 87%
    05:00 +16°C° 0.1 mm 7 m/s 756 mmHg 87%
    06:00 +17°C° 0.1 mm 7 m/s 756 mmHg 85%
    07:00 +18°C° 0.1 mm 7 m/s 756 mmHg 83%
    08:00 +20°C° 0.1 mm 6 m/s 756 mmHg 81%
    09:00 +21°C° 0 mm 5 m/s 756 mmHg 77%
    10:00 +22°C° 0 mm 4 m/s 756 mmHg 73%
    11:00 +23°C° 0 mm 4 m/s 757 mmHg 69%
    12:00 +23°C° 0 mm 4 m/s 757 mmHg 69%
    13:00 +23°C° 0 mm 4 m/s 757 mmHg 69%
    14:00 +23°C° 0 mm 4 m/s 757 mmHg 68%
    15:00 +23°C° 0 mm 5 m/s 757 mmHg 71%
    16:00 +22°C° 0 mm 6 m/s 757 mmHg 73%
    17:00 +21°C° 0 mm 7 m/s 757 mmHg 76%
    18:00 +20°C° 0 mm 7 m/s 758 mmHg 78%
    19:00 +18°C° 0 mm 7 m/s 758 mmHg 80%
    20:00 +17°C° 0 mm 7 m/s 758 mmHg 82%
    21:00 +16°C° 0 mm 7 m/s 759 mmHg 82%
    22:00 +15°C° 0 mm 7 m/s 759 mmHg 82%
    23:00 +14°C° 0 mm 7 m/s 760 mmHg 82%
    Voir plus